Back to catalog

TAURUS R/B

AlivePO
NORAD 28255·ROCKET BODY·🇺🇸 United States

Launched May 20, 2004 from Vandenberg Space Force Base

Loading…

Next Passes (next 24 hours)

TLE

FreshSource: Space-Track

Epoch: Sep 14, 2026, 06:23 UTC

1 28255U 04018B   26257.26600699  .00000158  00000-0  51906-4 0  9994
2 28255  99.0822   8.0564 0014352  37.0089 323.2091 14.52131673181114

Track TAURUS R/B in real time with AllMySat

Download on the App Store